カタログに戻る

STARLINK-35175

運用中通信VLEO
NORAD 65929·PAYLOAD·🇺🇸 United States

打ち上げ Oct 8, 2025 から Vandenberg Space Force Base

Loading…

次のパス (今後24時間)

TLE

最新Source: CelesTrak SupGP

元期: Sep 14, 2026, 15:51 UTC

1 65929C 25225V   26257.66090278 -.00034086  00000+0 -10074-2 0  2570
2 65929  53.1606   6.7385 0001289  73.8179  56.0413 15.34398390    13

AllMySatでSTARLINK-35175をリアルタイム追跡

Download on the App Store